| time (UTC) | temp C | wind direction | speed KPH | gust KPH | rain 1hr cm | rain 24hr cm | rain mn cm | humidity % | barometer mb |
| 20260905123514 | 25 | 322 | 4.8 | 6.4 | 0.00 | 0.08 | 0.00 | 85 | 1014.6 |
| 20260905123014 | 24 | 262 | 6.4 | 6.4 | 0.00 | 0.08 | 0.00 | 86 | 1014.5 |
| 20260905122514 | 24 | 259 | 6.4 | 6.4 | 0.00 | 0.08 | 0.00 | 86 | 1014.4 |
| 20260905122014 | 25 | 259 | 4.8 | 8.0 | 0.00 | 0.08 | 0.00 | 85 | 1014.5 |
| 20260905121514 | 25 | 245 | 6.4 | 8.0 | 0.00 | 0.08 | 0.00 | 85 | 1014.4 |
| 20260905121014 | 25 | 233 | 8.0 | 8.0 | 0.00 | 0.08 | 0.00 | 85 | 1014.4 |
| 20260905120514 | 24 | 229 | 8.0 | 8.0 | 0.00 | 0.08 | 0.00 | 86 | 1014.4 |
| 20260905120014 | 24 | 241 | 6.4 | 8.0 | 0.00 | 0.08 | 0.00 | 85 | 1014.4 |
| 20260905115514 | 24 | 228 | 6.4 | 8.0 | 0.00 | 0.08 | 0.00 | 85 | 1014.3 |
| 20260905115014 | 24 | 228 | 8.0 | 9.7 | 0.00 | 0.08 | 0.00 | 85 | 1014.1 |
| 20260905114513 | 24 | 233 | 8.0 | 9.7 | 0.00 | 0.08 | 0.00 | 84 | 1014.1 |
| 20260905114013 | 25 | 228 | 8.0 | 9.7 | 0.00 | 0.08 | 0.00 | 84 | 1014.0 |
| 20260905113513 | 25 | 221 | 8.0 | 9.7 | 0.00 | 0.08 | 0.00 | 84 | 1014.0 |
| 20260905113013 | 25 | 225 | 9.7 | 9.7 | 0.00 | 0.08 | 0.00 | 84 | 1014.0 |
| 20260905112513 | 25 | 227 | 8.0 | 9.7 | 0.00 | 0.08 | 0.00 | 83 | 1014.0 |
| 20260905112013 | 25 | 206 | 8.0 | 9.7 | 0.00 | 0.08 | 0.00 | 83 | 1014.0 |
| 20260905111513 | 25 | 212 | 8.0 | 8.0 | 0.00 | 0.08 | 0.00 | 83 | 1014.1 |
| 20260905111013 | 25 | 216 | 6.4 | 8.0 | 0.00 | 0.08 | 0.00 | 83 | 1014.1 |
| 20260905110513 | 25 | 225 | 6.4 | 6.4 | 0.00 | 0.08 | 0.00 | 83 | 1014.2 |
| 20260905110013 | 25 | 235 | 6.4 | 6.4 | 0.00 | 0.08 | 0.00 | 82 | 1014.3 |
| 20260905105513 | 25 | 243 | 6.4 | 8.0 | 0.00 | 0.08 | 0.00 | 82 | 1014.2 |
| 20260905105013 | 25 | 241 | 4.8 | 8.0 | 0.00 | 0.08 | 0.00 | 81 | 1014.2 |
| 20260905104012 | 25 | 176 | 8.0 | 12.9 | 0.00 | 0.08 | 0.00 | 81 | 1014.0 |
| 20260905103512 | 25 | 172 | 9.7 | 12.9 | 0.00 | 0.08 | 0.00 | 81 | 1013.9 |
| 20260905103013 | 25 | 163 | 9.7 | 11.3 | 0.00 | 0.08 | 0.00 | 81 | 1013.9 |
| 20260905102512 | 25 | 167 | 8.0 | 11.3 | 0.00 | 0.08 | 0.00 | 81 | 1014.0 |
| 20260905102013 | 25 | 155 | 8.0 | 11.3 | 0.00 | 0.08 | 0.00 | 81 | 1014.0 |
| 20260905101512 | 25 | 148 | 9.7 | 11.3 | 0.00 | 0.08 | 0.00 | 81 | 1013.9 |
| 20260905101012 | 25 | 144 | 9.7 | 11.3 | 0.00 | 0.08 | 0.00 | 80 | 1013.9 |
| 20260905100512 | 25 | 147 | 9.7 | 9.7 | 0.00 | 0.08 | 0.00 | 80 | 1014.0 |
| 20260905100012 | 26 | 156 | 8.0 | 8.0 | 0.00 | 0.08 | 0.00 | 79 | 1014.0 |
| 20260905095512 | 26 | 165 | 6.4 | 9.7 | 0.00 | 0.08 | 0.00 | 79 | 1014.0 |
| 20260905095012 | 26 | 191 | 8.0 | 9.7 | 0.00 | 0.08 | 0.00 | 78 | 1014.0 |
| 20260905094512 | 26 | 163 | 8.0 | 9.7 | 0.00 | 0.08 | 0.00 | 78 | 1014.1 |
| 20260905094012 | 26 | 191 | 6.4 | 9.7 | 0.00 | 0.08 | 0.00 | 78 | 1014.1 |
| 20260905093512 | 26 | 204 | 4.8 | 8.0 | 0.00 | 0.08 | 0.00 | 78 | 1014.1 |
| 20260905093012 | 26 | 202 | 4.8 | 8.0 | 0.00 | 0.08 | 0.00 | 77 | 1014.1 |
| 20260905092012 | 26 | 205 | 6.4 | 11.3 | 0.00 | 0.08 | 0.00 | 77 | 1014.0 |
| 20260905091512 | 26 | 212 | 9.7 | 11.3 | 0.00 | 0.08 | 0.00 | 76 | 1014.0 |
| 20260905091011 | 26 | 210 | 9.7 | 11.3 | 0.00 | 0.08 | 0.00 | 76 | 1013.9 |
| 20260905090511 | 26 | 210 | 11.3 | 11.3 | 0.00 | 0.08 | 0.00 | 76 | 1013.9 |
| 20260905090012 | 26 | 220 | 9.7 | 11.3 | 0.00 | 0.08 | 0.00 | 76 | 1013.8 |
| 20260905085511 | 26 | 228 | 9.7 | 11.3 | 0.00 | 0.08 | 0.00 | 76 | 1013.7 |
| 20260905085012 | 26 | 231 | 9.7 | 11.3 | 0.00 | 0.08 | 0.00 | 76 | 1013.6 |
| 20260905084511 | 26 | 230 | 9.7 | 11.3 | 0.00 | 0.08 | 0.00 | 76 | 1013.6 |
| 20260905084012 | 26 | 231 | 11.3 | 11.3 | 0.00 | 0.08 | 0.00 | 75 | 1013.6 |
| 20260905083511 | 26 | 233 | 11.3 | 12.9 | 0.00 | 0.08 | 0.00 | 75 | 1013.6 |
| 20260905082511 | 26 | 223 | 9.7 | 12.9 | 0.00 | 0.08 | 0.00 | 74 | 1013.7 |
| 20260905082011 | 26 | 225 | 11.3 | 12.9 | 0.00 | 0.08 | 0.00 | 74 | 1013.6 |
| 20260905081511 | 26 | 224 | 11.3 | 12.9 | 0.00 | 0.08 | 0.00 | 73 | 1013.6 |
| 20260905081011 | 27 | 226 | 11.3 | 11.3 | 0.00 | 0.08 | 0.00 | 73 | 1013.6 |
| 20260905080511 | 27 | 230 | 8.0 | 11.3 | 0.00 | 0.08 | 0.00 | 73 | 1013.6 |
| 20260905075510 | 27 | 221 | 9.7 | 11.3 | 0.00 | 0.08 | 0.00 | 72 | 1013.7 |
| 20260905074011 | 27 | 237 | 8.0 | 11.3 | 0.00 | 0.08 | 0.00 | 70 | 1013.9 |
| 20260905073511 | 27 | 231 | 9.7 | 11.3 | 0.00 | 0.08 | 0.00 | 69 | 1013.9 |
| 20260905073010 | 27 | 223 | 11.3 | 14.5 | 0.00 | 0.08 | 0.00 | 68 | 1013.9 |
| 20260905072510 | 27 | 224 | 9.7 | 14.5 | 0.00 | 0.08 | 0.00 | 68 | 1013.9 |
| 20260905071511 | 28 | 214 | 11.3 | 14.5 | 0.00 | 0.08 | 0.00 | 66 | 1013.9 |
| 20260905070510 | 28 | 199 | 9.7 | 11.3 | 0.00 | 0.08 | 0.00 | 65 | 1013.9 |
| 20260905070010 | 28 | 203 | 9.7 | 11.3 | 0.00 | 0.08 | 0.00 | 65 | 1014.0 |
| 20260905065510 | 28 | 197 | 6.4 | 11.3 | 0.00 | 0.08 | 0.00 | 64 | 1014.0 |
| 20260905065010 | 28 | 185 | 8.0 | 11.3 | 0.00 | 0.08 | 0.00 | 64 | 1014.0 |
| 20260905064510 | 28 | 200 | 9.7 | 9.7 | 0.00 | 0.08 | 0.00 | 63 | 1014.0 |
| 20260905064010 | 28 | 185 | 6.4 | 9.7 | 0.00 | 0.08 | 0.00 | 63 | 1014.0 |
| 20260905063010 | 29 | 186 | 9.7 | 11.3 | 0.00 | 0.08 | 0.00 | 62 | 1014.0 |
| 20260905062510 | 29 | 194 | 8.0 | 12.9 | 0.00 | 0.08 | 0.00 | 62 | 1014.0 |
| 20260905061009 | 29 | 195 | 12.9 | 17.7 | 0.00 | 0.08 | 0.00 | 60 | 1013.9 |
| 20260905060009 | 30 | 170 | 12.9 | 17.7 | 0.00 | 0.08 | 0.00 | 60 | 1013.7 |
| 20260905055509 | 30 | 191 | 11.3 | 16.1 | 0.00 | 0.08 | 0.00 | 60 | 1013.7 |
| 20260905055009 | 30 | 184 | 11.3 | 16.1 | 0.00 | 0.08 | 0.00 | 60 | 1013.7 |
| 20260905054509 | 30 | 204 | 14.5 | 16.1 | 0.00 | 0.08 | 0.00 | 60 | 1013.7 |
| 20260905054010 | 30 | 194 | 11.3 | 16.1 | 0.00 | 0.08 | 0.00 | 60 | 1013.7 |
| 20260905053509 | 30 | 189 | 12.9 | 14.5 | 0.00 | 0.08 | 0.00 | 60 | 1013.7 |
| 20260905053009 | 30 | 190 | 11.3 | 14.5 | 0.00 | 0.08 | 0.00 | 60 | 1013.7 |
| 20260905052509 | 30 | 197 | 11.3 | 14.5 | 0.00 | 0.08 | 0.00 | 59 | 1013.7 |
| 20260905052009 | 30 | 178 | 8.0 | 14.5 | 0.00 | 0.08 | 0.00 | 59 | 1013.6 |
| 20260905051509 | 30 | 177 | 11.3 | 14.5 | 0.00 | 0.08 | 0.00 | 59 | 1013.5 |
| 20260905051010 | 30 | 181 | 11.3 | 12.9 | 0.00 | 0.08 | 0.00 | 58 | 1013.5 |
| 20260905050508 | 30 | 189 | 9.7 | 12.9 | 0.00 | 0.08 | 0.00 | 58 | 1013.6 |
| 20260905050008 | 30 | 180 | 11.3 | 14.5 | 0.00 | 0.08 | 0.00 | 57 | 1013.5 |
| 20260905045008 | 30 | 164 | 11.3 | 19.3 | 0.00 | 0.08 | 0.08 | 56 | 1013.5 |
| 20260905044509 | 30 | 160 | 14.5 | 19.3 | 0.00 | 0.08 | 0.08 | 56 | 1013.5 |
| 20260905044008 | 30 | 162 | 16.1 | 17.7 | 0.00 | 0.08 | 0.08 | 55 | 1013.5 |
| 20260905043509 | 30 | 163 | 16.1 | 17.7 | 0.00 | 0.08 | 0.08 | 55 | 1013.5 |
| 20260905043008 | 30 | 159 | 16.1 | 19.3 | 0.00 | 0.08 | 0.08 | 54 | 1013.5 |
| 20260905041509 | 30 | 142 | 11.3 | 14.5 | 0.00 | 0.08 | 0.08 | 52 | 1013.5 |
| 20260905041008 | 31 | 143 | 12.9 | 16.1 | 0.00 | 0.08 | 0.08 | 52 | 1013.4 |
| 20260905040008 | 31 | 140 | 14.5 | 17.7 | 0.00 | 0.08 | 0.08 | 52 | 1013.4 |
| 20260905035508 | 31 | 143 | 14.5 | 17.7 | 0.00 | 0.08 | 0.08 | 52 | 1013.4 |
| 20260905035008 | 31 | 143 | 14.5 | 14.5 | 0.00 | 0.08 | 0.08 | 52 | 1013.5 |
| 20260905034008 | 31 | 138 | 11.3 | 19.3 | 0.00 | 0.08 | 0.08 | 51 | 1013.4 |
| 20260905033509 | 31 | 137 | 16.1 | 17.7 | 0.00 | 0.08 | 0.08 | 51 | 1013.3 |
| 20260905033008 | 31 | 141 | 12.9 | 17.7 | 0.00 | 0.08 | 0.08 | 51 | 1013.3 |
| 20260905032009 | 31 | 146 | 12.9 | 20.9 | 0.00 | 0.08 | 0.08 | 51 | 1013.3 |
| 20260905031507 | 31 | 131 | 12.9 | 20.9 | 0.00 | 0.08 | 0.08 | 51 | 1013.3 |
| 20260905031007 | 31 | 140 | 14.5 | 20.9 | 0.00 | 0.08 | 0.08 | 51 | 1013.3 |
| 20260905030007 | 31 | 141 | 16.1 | 17.7 | 0.00 | 0.08 | 0.08 | 51 | 1013.2 |
| 20260905024007 | 31 | 135 | 14.5 | 19.3 | 0.00 | 0.08 | 0.08 | 52 | 1013.0 |
| 20260905023507 | 31 | 133 | 17.7 | 20.9 | 0.00 | 0.08 | 0.08 | 51 | 1012.9 |
| 20260905023007 | 32 | 134 | 14.5 | 20.9 | 0.00 | 0.08 | 0.08 | 51 | 1012.9 |
| 20260905022507 | 32 | 140 | 17.7 | 20.9 | 0.00 | 0.08 | 0.08 | 51 | 1012.8 |
| 20260905020506 | 32 | 138 | 20.9 | 24.1 | 0.00 | 0.08 | 0.08 | 51 | 1012.5 |
| 20260905020006 | 32 | 135 | 16.1 | 24.1 | 0.00 | 0.08 | 0.08 | 51 | 1012.5 |
| 20260905015507 | 32 | 128 | 11.3 | 14.5 | 0.00 | 0.08 | 0.08 | 52 | 1012.5 |
| 20260905015007 | 32 | 117 | 11.3 | 16.1 | 0.00 | 0.08 | 0.08 | 52 | 1012.4 |
| 20260905014506 | 32 | 123 | 11.3 | 16.1 | 0.00 | 0.08 | 0.08 | 52 | 1012.3 |
| 20260905014006 | 32 | 115 | 11.3 | 17.7 | 0.00 | 0.08 | 0.08 | 51 | 1012.2 |
| 20260905013506 | 32 | 121 | 14.5 | 17.7 | 0.00 | 0.08 | 0.08 | 51 | 1012.2 |
| 20260905013006 | 32 | 114 | 14.5 | 16.1 | 0.00 | 0.08 | 0.08 | 50 | 1012.0 |
| 20260905012506 | 32 | 113 | 14.5 | 16.1 | 0.00 | 0.08 | 0.08 | 49 | 1012.0 |
| 20260905012006 | 32 | 112 | 12.9 | 16.1 | 0.00 | 0.08 | 0.08 | 47 | 1012.0 |
| 20260905011006 | 33 | 121 | 11.3 | 14.5 | 0.00 | 0.08 | 0.08 | 46 | 1011.9 |
| 20260905010006 | 33 | 128 | 14.5 | 14.5 | 0.00 | 0.08 | 0.08 | 45 | 1011.8 |
| 20260905004506 | 33 | 145 | 11.3 | 16.1 | 0.00 | 0.08 | 0.08 | 43 | 1011.7 |
| 20260905003506 | 34 | 140 | 11.3 | 14.5 | 0.00 | 0.08 | 0.08 | 42 | 1011.5 |
| 20260905003006 | 35 | 155 | 9.7 | 19.3 | 0.00 | 0.08 | 0.08 | 42 | 1011.4 |
| 20260905002505 | 35 | 160 | 9.7 | 19.3 | 0.00 | 0.08 | 0.08 | 42 | 1011.3 |
| 20260905002005 | 35 | 168 | 12.9 | 17.7 | 0.00 | 0.08 | 0.08 | 41 | 1011.2 |
| 20260905001505 | 35 | 158 | 11.3 | 17.7 | 0.00 | 0.08 | 0.08 | 41 | 1011.2 |
| 20260905001005 | 35 | 166 | 17.7 | 20.9 | 0.00 | 0.08 | 0.08 | 41 | 1011.2 |
| 20260905000505 | 35 | 159 | 14.5 | 24.1 | 0.00 | 0.08 | 0.08 | 40 | 1011.2 |
| 20260905000006 | 35 | 155 | 24.1 | 24.1 | 0.00 | 0.08 | 0.08 | 40 | 1011.2 |
| 20260904235506 | 35 | 149 | 22.5 | 24.1 | 0.00 | 0.08 | 0.08 | 40 | 1011.2 |
| 20260904235005 | 35 | 164 | 19.3 | 24.1 | 0.00 | 0.08 | 0.08 | 40 | 1011.2 |
| 20260904234506 | 35 | 165 | 16.1 | 27.4 | 0.00 | 0.08 | 0.08 | 40 | 1011.2 |
| 20260904234005 | 35 | 152 | 12.9 | 27.4 | 0.00 | 0.08 | 0.08 | 40 | 1011.2 |
| 20260904233505 | 35 | 138 | 22.5 | 22.5 | 0.00 | 0.08 | 0.08 | 41 | 1011.2 |
| 20260904233005 | 35 | 127 | 19.3 | 24.1 | 0.00 | 0.08 | 0.08 | 40 | 1011.1 |
| 20260904232505 | 36 | 138 | 24.1 | 25.7 | 0.00 | 0.08 | 0.08 | 40 | 1011.1 |
| 20260904232006 | 36 | 168 | 14.5 | 25.7 | 0.00 | 0.08 | 0.08 | 40 | 1011.1 |
| 20260904231505 | 36 | 156 | 20.9 | 24.1 | 0.00 | 0.08 | 0.08 | 40 | 1011.1 |
| 20260904231005 | 36 | 171 | 11.3 | 19.3 | 0.00 | 0.08 | 0.08 | 40 | 1011.2 |
| 20260904230505 | 36 | 142 | 12.9 | 24.1 | 0.00 | 0.08 | 0.08 | 40 | 1011.2 |
| 20260904230005 | 35 | 172 | 12.9 | 32.2 | 0.00 | 0.08 | 0.08 | 40 | 1011.2 |
| 20260904225505 | 36 | 161 | 17.7 | 32.2 | 0.00 | 0.08 | 0.08 | 40 | 1011.2 |
| 20260904225005 | 36 | 111 | 20.9 | 29.0 | 0.00 | 0.08 | 0.08 | 40 | 1011.2 |
| 20260904224505 | 36 | 168 | 12.9 | 29.0 | 0.00 | 0.08 | 0.08 | 40 | 1011.3 |
| 20260904224005 | 36 | 144 | 11.3 | 20.9 | 0.00 | 0.08 | 0.08 | 40 | 1011.3 |
| 20260904223505 | 35 | 121 | 20.9 | 20.9 | 0.00 | 0.08 | 0.08 | 40 | 1011.3 |
| 20260904223035 | 36 | 150 | 16.1 | 24.1 | 0.00 | 0.08 | 0.08 | 39 | 1011.4 |
| 20260904222505 | 36 | 159 | 24.1 | 30.6 | 0.00 | 0.08 | 0.08 | 39 | 1011.4 |
| 20260904222006 | 36 | 138 | 22.5 | 30.6 | 0.00 | 0.08 | 0.08 | 39 | 1011.4 |
| 20260904221006 | 36 | 205 | 25.7 | 27.4 | 0.00 | 0.08 | 0.08 | 40 | 1011.4 |
| 20260904220505 | 36 | 183 | 20.9 | 24.1 | 0.00 | 0.08 | 0.08 | 40 | 1011.4 |
| 20260904220005 | 36 | 197 | 12.9 | 24.1 | 0.00 | 0.08 | 0.08 | 41 | 1011.5 |
| 20260904215505 | 36 | 190 | 17.7 | 24.1 | 0.00 | 0.08 | 0.08 | 41 | 1011.5 |
| 20260904215005 | 36 | 143 | 14.5 | 25.7 | 0.00 | 0.08 | 0.08 | 41 | 1011.5 |
| 20260904214504 | 36 | 176 | 8.0 | 29.0 | 0.00 | 0.08 | 0.08 | 42 | 1011.6 |
| 20260904214005 | 35 | 141 | 19.3 | 29.0 | 0.00 | 0.08 | 0.08 | 42 | 1011.5 |
| 20260904213504 | 35 | 123 | 20.9 | 25.7 | 0.00 | 0.08 | 0.08 | 42 | 1011.6 |
| 20260904213004 | 35 | 153 | 9.7 | 30.6 | 0.00 | 0.08 | 0.08 | 43 | 1011.8 |
| 20260904212504 | 35 | 165 | 27.4 | 30.6 | 0.00 | 0.08 | 0.08 | 42 | 1011.7 |
| 20260904212004 | 36 | 211 | 16.1 | 27.4 | 0.00 | 0.08 | 0.08 | 42 | 1011.8 |
| 20260904211004 | 35 | 201 | 24.1 | 27.4 | 0.00 | 0.08 | 0.08 | 42 | 1011.9 |
| 20260904210504 | 35 | 170 | 12.9 | 25.7 | 0.00 | 0.08 | 0.08 | 41 | 1012.0 |
| 20260904205504 | 35 | 164 | 20.9 | 24.1 | 0.00 | 0.08 | 0.08 | 40 | 1012.2 |
| 20260904204504 | 35 | 145 | 22.5 | 25.7 | 0.00 | 0.08 | 0.08 | 40 | 1012.3 |
| 20260904203504 | 35 | 165 | 14.5 | 24.1 | 0.00 | 0.08 | 0.08 | 40 | 1012.4 |
| 20260904203004 | 35 | 147 | 12.9 | 25.7 | 0.00 | 0.08 | 0.08 | 41 | 1012.4 |
| 20260904202504 | 35 | 178 | 19.3 | 25.7 | 0.00 | 0.08 | 0.08 | 42 | 1012.5 |
| 20260904202004 | 35 | 169 | 24.1 | 29.0 | 0.00 | 0.08 | 0.08 | 41 | 1012.5 |
| 20260904201504 | 35 | 134 | 24.1 | 29.0 | 0.00 | 0.08 | 0.08 | 41 | 1012.6 |
| 20260904201004 | 35 | 165 | 19.3 | 29.0 | 0.00 | 0.08 | 0.08 | 42 | 1012.6 |
| 20260904200504 | 35 | 168 | 12.9 | 25.7 | 0.00 | 0.08 | 0.08 | 43 | 1012.8 |
| 20260904195004 | 35 | 168 | 19.3 | 27.4 | 0.00 | 0.08 | 0.08 | 43 | 1012.9 |
| 20260904194003 | 35 | 168 | 17.7 | 25.7 | 0.00 | 0.08 | 0.08 | 43 | 1013.0 |
| 20260904193503 | 35 | 216 | 14.5 | 30.6 | 0.00 | 0.08 | 0.08 | 45 | 1013.1 |
| 20260904193003 | 35 | 175 | 12.9 | 30.6 | 0.00 | 0.08 | 0.08 | 44 | 1013.1 |
| 20260904192503 | 34 | 206 | 20.9 | 30.6 | 0.00 | 0.08 | 0.08 | 44 | 1013.1 |
| 20260904192003 | 34 | 215 | 19.3 | 32.2 | 0.00 | 0.08 | 0.08 | 44 | 1013.2 |
| 20260904191503 | 34 | 201 | 14.5 | 32.2 | 0.00 | 0.08 | 0.08 | 43 | 1013.2 |
| 20260904191003 | 35 | 209 | 30.6 | 30.6 | 0.00 | 0.08 | 0.08 | 42 | 1013.3 |
| 20260904190503 | 34 | 132 | 29.0 | 33.8 | 0.00 | 0.08 | 0.08 | 42 | 1013.4 |
| 20260904190003 | 33 | 194 | 11.3 | 33.8 | 0.00 | 0.08 | 0.08 | 44 | 1013.5 |
| 20260904184503 | 34 | 150 | 20.9 | 32.2 | 0.00 | 0.08 | 0.08 | 45 | 1013.6 |
| 20260904184002 | 33 | 155 | 30.6 | 32.2 | 0.00 | 0.08 | 0.08 | 45 | 1013.6 |
| 20260904182503 | 33 | 145 | 27.4 | 29.0 | 0.00 | 0.08 | 0.08 | 41 | 1013.9 |
| 20260904182002 | 33 | 198 | 16.1 | 29.0 | 0.00 | 0.08 | 0.08 | 41 | 1014.1 |
| 20260904181502 | 33 | 223 | 25.7 | 30.6 | 0.00 | 0.08 | 0.08 | 42 | 1014.1 |
| 20260904181002 | 32 | 201 | 25.7 | 30.6 | 0.00 | 0.08 | 0.08 | 42 | 1014.2 |
| 20260904180502 | 32 | 197 | 22.5 | 30.6 | 0.00 | 0.08 | 0.08 | 42 | 1014.2 |
| 20260904175502 | 32 | 211 | 20.9 | 30.6 | 0.00 | 0.08 | 0.08 | 47 | 1014.3 |
| 20260904175002 | 32 | 168 | 20.9 | 30.6 | 0.00 | 0.08 | 0.08 | 45 | 1014.3 |
| 20260904174532 | 33 | 188 | 20.9 | 30.6 | 0.00 | 0.08 | 0.08 | 44 | 1014.3 |
| 20260904174003 | 32 | 161 | 19.3 | 25.7 | 0.00 | 0.08 | 0.08 | 50 | 1014.3 |
| 20260904173502 | 32 | 201 | 22.5 | 27.4 | 0.00 | 0.08 | 0.08 | 51 | 1014.4 |
| 20260904173002 | 32 | 163 | 22.5 | 27.4 | 0.00 | 0.08 | 0.08 | 50 | 1014.5 |
| 20260904172002 | 31 | 191 | 11.3 | 25.7 | 0.00 | 0.08 | 0.08 | 56 | 1014.8 |
| 20260904171502 | 31 | 203 | 19.3 | 27.4 | 0.00 | 0.08 | 0.08 | 57 | 1014.7 |
| 20260904171001 | 31 | 223 | 25.7 | 27.4 | 0.00 | 0.08 | 0.08 | 57 | 1014.8 |
| 20260904165501 | 31 | 175 | 17.7 | 22.5 | 0.00 | 0.08 | 0.08 | 55 | 1014.9 |
| 20260904165001 | 31 | 213 | 20.9 | 24.1 | 0.00 | 0.08 | 0.08 | 55 | 1015.0 |
| 20260904164502 | 30 | 185 | 12.9 | 29.0 | 0.00 | 0.08 | 0.08 | 56 | 1015.1 |
| 20260904164002 | 30 | 215 | 25.7 | 29.0 | 0.00 | 0.08 | 0.08 | 55 | 1015.1 |
| 20260904163502 | 30 | 204 | 19.3 | 24.1 | 0.00 | 0.08 | 0.08 | 57 | 1015.1 |
| 20260904162501 | 30 | 204 | 20.9 | 27.4 | 0.00 | 0.08 | 0.08 | 58 | 1015.1 |
| 20260904162001 | 30 | 215 | 19.3 | 27.4 | 0.00 | 0.08 | 0.08 | 62 | 1015.1 |
| 20260904161001 | 29 | 195 | 19.3 | 22.5 | 0.00 | 0.08 | 0.08 | 66 | 1015.2 |
| 20260904160001 | 28 | 209 | 20.9 | 22.5 | 0.03 | 0.08 | 0.08 | 66 | 1015.2 |
| 20260904155501 | 28 | 202 | 17.7 | 22.5 | 0.03 | 0.08 | 0.08 | 67 | 1015.2 |
| 20260904155001 | 28 | 217 | 12.9 | 22.5 | 0.03 | 0.08 | 0.08 | 68 | 1015.1 |
| 20260904154501 | 28 | 198 | 17.7 | 22.5 | 0.05 | 0.08 | 0.08 | 68 | 1015.2 |
| 20260904154001 | 28 | 196 | 19.3 | 22.5 | 0.08 | 0.08 | 0.08 | 69 | 1015.1 |
| 20260904153001 | 28 | 158 | 11.3 | 20.9 | 0.08 | 0.08 | 0.08 | 71 | 1015.1 |
| 20260904152501 | 28 | 194 | 16.1 | 20.9 | 0.08 | 0.08 | 0.08 | 71 | 1015.1 |
| 20260904152001 | 28 | 192 | 14.5 | 29.0 | 0.08 | 0.08 | 0.08 | 71 | 1015.0 |
| 20260904151501 | 28 | 195 | 22.5 | 29.0 | 0.08 | 0.08 | 0.08 | 69 | 1015.0 |
| 20260904145501 | 27 | 170 | 12.9 | 19.3 | 0.05 | 0.05 | 0.05 | 81 | 1015.0 |
| 20260904144501 | 27 | 210 | 9.7 | 14.5 | 0.03 | 0.03 | 0.03 | 80 | 1015.0 |
| 20260904143500 | 27 | 184 | 9.7 | 17.7 | 0.00 | 0.00 | 0.00 | 80 | 1014.9 |
| 20260904143000 | 27 | 195 | 14.5 | 19.3 | 0.00 | 0.00 | 0.00 | 78 | 1014.9 |
| 20260904142530 | 27 | 178 | 16.1 | 19.3 | 0.00 | 0.00 | 0.00 | 80 | 1014.8 |
| 20260904142000 | 27 | 177 | 12.9 | 19.3 | 0.00 | 0.00 | 0.00 | 82 | 1014.9 |
| 20260904141500 | 27 | 160 | 12.9 | 19.3 | 0.00 | 0.00 | 0.00 | 83 | 1014.8 |
| 20260904141001 | 26 | 163 | 11.3 | 19.3 | 0.00 | 0.00 | 0.00 | 84 | 1014.8 |
| 20260904140500 | 26 | 144 | 14.5 | 19.3 | 0.00 | 0.00 | 0.00 | 85 | 1014.8 |
| 20260904140000 | 26 | 169 | 16.1 | 20.9 | 0.00 | 0.00 | 0.00 | 85 | 1014.8 |
| 20260904135500 | 26 | 0 | 0.0 | 20.9 | 0.00 | 0.00 | 0.00 | 86 | 1014.8 |
| 20260904135000 | 26 | 131 | 16.1 | 19.3 | 0.00 | 0.00 | 0.00 | 87 | 1014.7 |
| 20260904134502 | 26 | 147 | 12.9 | 20.9 | 0.00 | 0.00 | 0.00 | 88 | 1014.7 |
| 20260904134000 | 26 | 0 | 0.0 | 20.9 | 0.00 | 0.00 | 0.00 | 88 | 1014.6 |
| 20260904133501 | 26 | 0 | 0.0 | 20.9 | 0.00 | 0.00 | 0.00 | 88 | 1014.6 |
| 20260904132001 | 26 | 156 | 8.0 | 17.7 | 0.00 | 0.00 | 0.00 | 89 | 1014.4 |
| 20260904131500 | 26 | 146 | 14.5 | 16.1 | 0.00 | 0.00 | 0.00 | 89 | 1014.4 |
| 20260904130501 | 26 | 137 | 9.7 | 16.1 | 0.00 | 0.00 | 0.00 | 89 | 1014.4 |
| 20260904125459 | 25 | 145 | 11.3 | 14.5 | 0.00 | 0.00 | 0.00 | 89 | 1014.3 |
| 20260904124959 | 25 | 146 | 11.3 | 17.7 | 0.00 | 0.00 | 0.00 | 89 | 1014.2 |
| 20260904123959 | 25 | 157 | 14.5 | 16.1 | 0.00 | 0.00 | 0.00 | 89 | 1014.1 |